Location: Sabalos
(43.2860°N, 0.1414°E)
Time: 10:29:36
(UTC+00:00)

Cosmos 1758 Rocket - Pass Details

Date: 05 July 2020
Orbit: 601 x 637 km, 82.5° (Epoch: 05 August)

Event Time Altitude Azimuth Distance (km) Brightness Sun altitude
Exits shadow 21:07:50 - 193° (SSW) 2,568 6.4 -12.6°
Reaches altitude 10° 21:09:12 10° 194° (SSW) 2,018 5.9 -12.8°
Maximum altitude 21:13:41 72° 279° (W) 673 3.8 -13.3°
Drops below altitude 10° 21:18:11 10° 4° (N) 2,032 6.9 -13.8°
Sets 21:20:27 0° 7° (N) 2,943 7.7 -14.1°
